Chippewa, MI

3:40 AM EST on December 11, 2019 (GMT -0500)
Chippewa County International

Weather History for KCIU - October, 2019

Change the Weather History Date:

Thursday, October 24, 2019

  Actual Average Record
Temperature  
Mean Temperature 40 °F -  
Max Temperature 46 °F 52 °F 63 °F (1991)
Min Temperature 34 °F 30 °F 16 °F (1981)
Degree Days  
Heating Degree Days 26    
Moisture  
Dew Point 35 °F    
Average Humidity 83    
Maximum Humidity 96    
Minimum Humidity 68    
Precipitation  
Precipitation 0.00 in - - ()
Sea Level Pressure  
Sea Level Pressure 30.15 in    
Wind  
Wind Speed 7 mph ()    
Max Wind Speed 17 mph    
Max Gust Speed 23 mph    
Visibility 10.0 miles    
Events Rain    
Averages and records for this station are not official NWS values.
T = Trace of Precipitation, MM = Missing Value Source: Averaged Metar Reports

Daily Weather History Graph

Daily Weather History Graph

Search for Another Location

Airport or City:

Astronomy

Oct. 24, 2019 Rise Set
Actual Time 8:07 AM EDT 6:36 PM EDT
Civil Twilight 7:36 AM EDT 7:06 PM EDT
Nautical Twilight 7:01 AM EDT 7:41 PM EDT
Astronomical Twilight 6:26 AM EDT 8:16 PM EDT
Moon 3:15 AM EDT (10/24) 5:21 PM EDT (10/24)
Length of Visible Light 11h 30m
Length of Day
10h 28m
Waning Crescent, 17% of the Moon is Illuminated
Oct 24
Waning Crescent
Oct 27
New
Nov 4
First Quarter
Nov 12
Full
Nov 19
Last Quarter

Hourly Weather History & Observations

Time (EDT) Temp. Windchill Dew Point Humidity Pressure Visibility Wind Dir Wind Speed Gust Speed Precip Events Conditions
12:56 AM 39.9 °F 37.8 °F 36.0 °F 86% 29.95 in 10.0 mi WSW 3.5 mph - N/A   Overcast
1:56 AM 39.0 °F 36.8 °F 36.0 °F 89% 29.95 in 10.0 mi SSW 3.5 mph - N/A   Overcast
2:56 AM 39.0 °F 35.7 °F 36.0 °F 89% 29.95 in 10.0 mi SW 4.6 mph - N/A   Overcast
3:56 AM 39.0 °F 35.7 °F 35.1 °F 86% 29.96 in 10.0 mi WSW 4.6 mph - N/A   Overcast
4:56 AM 36.0 °F 31.1 °F 34.0 °F 93% 29.97 in 10.0 mi WSW 5.8 mph - N/A   Scattered Clouds
5:56 AM 35.1 °F 30.1 °F 33.1 °F 92% 30.00 in 10.0 mi WSW 5.8 mph - N/A   Clear
6:56 AM 34.0 °F 28.0 °F 32.0 °F 92% 30.02 in 10.0 mi West 6.9 mph - N/A   Clear
7:56 AM 35.1 °F 28.6 °F 33.1 °F 92% 30.04 in 10.0 mi West 8.1 mph - N/A   Overcast
8:56 AM 34.0 °F 27.2 °F 33.1 °F 96% 30.06 in 10.0 mi West 8.1 mph - N/A   Clear
9:11 AM 35.6 °F 29.2 °F 33.8 °F 93% 30.06 in 10.0 mi West 8.1 mph - N/A   Partly Cloudy
9:56 AM 37.9 °F 30.9 °F 35.1 °F 89% 30.11 in 10.0 mi West 10.4 mph - N/A   Clear
10:56 AM 41.0 °F 33.5 °F 35.1 °F 79% 30.13 in 10.0 mi WNW 13.8 mph 23.0 mph N/A   Partly Cloudy
11:10 AM 41.0 °F 32.8 °F 33.8 °F 76% 30.12 in 10.0 mi WNW 16.1 mph 23.0 mph N/A   Mostly Cloudy
11:56 AM 43.0 °F 35.4 °F 34.0 °F 71% 30.15 in 10.0 mi NW 16.1 mph - N/A   Overcast
12:56 PM 45.0 °F 37.9 °F 35.1 °F 68% 30.16 in 10.0 mi NW 16.1 mph 21.9 mph 0.00 in Rain Light Rain
1:56 PM 42.1 °F 35.7 °F 35.1 °F 76% 30.19 in 10.0 mi WNW 11.5 mph - 0.00 in Rain Light Rain
2:16 PM 42.8 °F 37.0 °F 35.6 °F 76% 30.17 in 10.0 mi NW 10.4 mph - 0.00 in Rain Light Rain
2:38 PM 42.8 °F 37.0 °F 37.4 °F 81% 30.18 in 10.0 mi WNW 10.4 mph - 0.00 in Rain Light Rain
2:56 PM 44.1 °F 36.5 °F 36.0 °F 73% 30.21 in 10.0 mi NW 17.3 mph 21.9 mph 0.00 in   Scattered Clouds
3:23 PM 44.6 °F 38.1 °F 35.6 °F 71% 30.19 in 10.0 mi WNW 13.8 mph - 0.00 in   Overcast
3:41 PM 42.8 °F 37.5 °F 35.6 °F 76% 30.20 in 10.0 mi West 9.2 mph - 0.00 in Rain Light Rain
3:56 PM 44.1 °F 37.1 °F 35.1 °F 71% 30.22 in 10.0 mi NW 15.0 mph 19.6 mph 0.00 in   Mostly Cloudy
4:56 PM 43.0 °F 38.2 °F 35.1 °F 74% 30.24 in 10.0 mi NNW 8.1 mph - 0.00 in   Mostly Cloudy
5:51 PM 42.8 °F 37.5 °F 33.8 °F 70% 30.23 in 10.0 mi NNW 9.2 mph - N/A   Mostly Cloudy
5:56 PM 42.1 °F 36.1 °F 34.0 °F 73% 30.25 in 10.0 mi NW 10.4 mph - N/A   Mostly Cloudy
6:12 PM 41.0 °F 35.2 °F 33.8 °F 76% 30.23 in 10.0 mi NW 9.2 mph - N/A   Mostly Cloudy
6:56 PM 39.9 °F 35.8 °F 35.1 °F 83% 30.27 in 10.0 mi NW 5.8 mph - 0.00 in Rain Light Rain
7:56 PM 39.0 °F 33.4 °F 35.1 °F 86% 30.29 in 10.0 mi WNW 8.1 mph - 0.00 in Rain Light Rain
8:10 PM 39.2 °F 35.0 °F 35.6 °F 87% 30.27 in 10.0 mi NW 5.8 mph - 0.00 in Rain Light Rain
8:19 PM 39.2 °F 35.0 °F 33.8 °F 81% 30.27 in 10.0 mi WNW 5.8 mph - 0.00 in   Overcast
8:56 PM 37.0 °F - 34.0 °F 89% 30.30 in 10.0 mi Calm Calm - 0.00 in   Overcast
9:56 PM 35.1 °F 32.2 °F 33.1 °F 92% 30.30 in 10.0 mi SW 3.5 mph - N/A   Scattered Clouds
10:56 PM 36.0 °F 32.1 °F 34.0 °F 93% 30.31 in 10.0 mi SSW 4.6 mph - N/A   Overcast
11:56 PM 37.0 °F 33.3 °F 34.0 °F 89% 30.31 in 10.0 mi SSW 4.6 mph - N/A   Overcast